Hourly Data Report for October 05, 2017

All times are specified in Local Standard Time (LST). Add 1 hour to adjust for Daylight Saving Time where and when it is observed.

PORT HARDY A
BRITISH COLUMBIA

50°40'50.000" N
127°22'00.000" W
21.60 m
1026271
71109
YZT

Download Data

Hourly Data (October 2017)
Hourly Data Report for October 5, 2017
Temp Definition
°C
Dew Point Temp Definition
°C
Rel Hum Definition
%
Wind Dir Definition
10's deg

Wind Spd Definition
km/h
Visibility Definition
km
Stn Press Definition
kPa
Hmdx Definition


Wind Chill Definition


Weather Definition


TIME
00:00 Legend Double Dagger 2.1 1.4 96 23 5 24.1 101.98     LegendNANA
01:00 Legend Double Dagger 1.9 1.4 96 36 3 24.1 101.99     Clear
02:00 Legend Double Dagger 1.7 1.1 96 23 6 24.1 102.00     LegendNANA
03:00 Legend Double Dagger 1.2 0.7 96 22 6 24.1 102.00     LegendNANA
04:00 Legend Double Dagger 0.1 -0.5 96 20 5 24.1 102.00     Clear
05:00 Legend Double Dagger 1.5 1.0 96 25 9 24.1 102.00     LegendNANA
06:00 Legend Double Dagger 0.1 -0.5 96 18 5 32.2 101.99     LegendNANA
07:00 Legend Double Dagger 1.1 0.6 96 25 7 32.2 102.01     Clear
08:00 Legend Double Dagger 4.0 3.5 96 21 4 32.2 102.04     LegendNANA
09:00 Legend Double Dagger 8.4 6.9 90 2 5 32.2 102.08     LegendNANA
10:00 Legend Double Dagger 9.5 6.5 82 6 4 32.2 102.09     Clear
11:00 Legend Double Dagger 9.9 6.6 80 6 8 32.2 102.07     LegendNANA
12:00 Legend Double Dagger 10.3 6.4 77 6 7 32.2 102.04     LegendNANA
13:00 Legend Double Dagger 11.2 6.8 74 6 7 32.2 102.00     Clear
14:00 Legend Double Dagger 11.8 7.1 73 5 5 32.2 101.96     LegendNANA
15:00 Legend Double Dagger 11.9 7.0 72 6 5 32.2 101.94     LegendNANA
16:00 Legend Double Dagger 13.0 6.0 62 6 3 32.2 101.87     Clear
17:00 Legend Double Dagger 12.8 6.8 67 36 4 32.2 101.85     LegendNANA
18:00 Legend Double Dagger 8.7 6.8 88 25 5 32.2 101.87     LegendNANA
19:00 Legend Double Dagger 9.6 7.2 85 17 5 24.1 101.84     Mostly Cloudy
20:00 Legend Double Dagger 10.0 7.5 85 26 5 24.1 101.83     LegendNANA
21:00 Legend Double Dagger 9.6 7.3 85 18 3 24.1 101.83     LegendNANA
22:00 Legend Double Dagger 10.6 6.9 78 17 8 24.1 101.71     Mostly Cloudy
23:00 Legend Double Dagger 10.8 8.3 85 21 6 24.1 101.71     LegendNANA

Notes on Data Quality.

Legend

  • E = Estimated
  • M = Missing
  • NA = Not Available
  • ‡ = Partner data that is not subject to review by the National Climate Archives
Date modified: